User: anonymous   Login
Location: Unspecified
(0.0000°N, 0.0000°E)
Time: 19:09:09
(UTC+00:00)
Language:

USA 48 - Orbit

View from above orbital plane
View from above orbital plane
View from above satellite
View from above satellite

Ground track
Ground track

The orbit data is extracted from the following two-line orbital elements,

1 20355U 89090B   19047.85670688 0.00000000  00000-0  00000-0 0    03
2 20355  18.2466   8.2651 0280475  38.5832 323.3874  1.00742388    04
Epoch (UTC): 16 February 2019 20:33:39
Eccentricity: 0.0280475
inclination: 18.2466°
perigee height: 34476 km
apogee height: 36834 km
right ascension of ascending node: 8.2651°
argument of perigee: 38.5832°
revolutions per day: 1.00742388
mean anomaly at epoch: 323.3874°
orbit number at epoch: 0

The dashed part of the orbit path shows where the satellite is in the earth's shadow,  

DLR